Overview Statistics Trail Chart Weather Telemetry Raw packets
 

This is the latest recevied weather packets stored in our database for station/object VE6HFD-WX. If no packets are shown the sender has not sent any weather packets the latest 10 day(s).

<< 16 17 18 19 20 21 22 >>
Time Temp. Humidity Pressure Rain* Wind** Luminosity Snow
1788498520 10.56° C 75% 1003.4 hPa 0 mm - - -
1788498190 10.56° C 79% 1003.4 hPa 0 mm - - -
1788497890 10.56° C 79% 1003.3 hPa 0 mm - - -
1788497560 10.56° C 80% 1003.2 hPa 0 mm - - -
1788497230 11.11° C 80% 1003.2 hPa 0 mm - - -
1788496930 11.11° C 81% 1003.2 hPa 0 mm - - -
1788496630 11.11° C 81% 1003.2 hPa 0 mm - - -
1788496330 11.11° C 83% 1003.3 hPa 0 mm - - -
1788496000 10.56° C 82% 1003.2 hPa 0 mm - - -
1788495700 10.56° C 83% 1003.4 hPa 0 mm - - -
1788495370 10° C 82% 1003.3 hPa 0 mm - - -
1788495040 10° C 81% 1003.3 hPa 0 mm - - -
1788494740 10.56° C 77% 1003.2 hPa 0 mm - - -
1788494410 11.67° C 73% 1003 hPa 0 mm - - -
1788494080 12.78° C 74% 1002.9 hPa 0 mm - - -
1788493750 12.78° C 72% 1002.7 hPa 0 mm - - -
1788493420 13.89° C 71% 1002.6 hPa 0 mm - - -
1788493090 14.44° C 73% 1002.6 hPa 0 mm - - -
1788492790 14.44° C 73% 1002.5 hPa 0 mm - - -
1788492490 14.44° C 73% 1002.5 hPa 0 mm - - -
1788492160 14.44° C 72% 1002.6 hPa 0 mm - - -
1788491830 14.44° C 69% 1002.6 hPa 0 mm - - -
1788491530 15° C 66% 1002.7 hPa 0 mm - - -
1788491200 15.56° C 65% 1002.6 hPa 0 mm - - -
1788490900 16.11° C 64% 1002.6 hPa 0 mm - - -

* Rain latest hour (hover to see other rain measurements)
** Current wind speed in m/s (hover to see current wind gust speed)